Regional Weather Roundup
Issued by NWS

Home | Current Version | Previous Version | Graphics & Text | Print | Product List | Glossary On
Versions: 1 2 3 4 5 6 7 8 9 10 11 12 13 14 15 16 17 18 19 20 21 22 23 24 25 26 27 28 29 30 31 32 33 34 35 36 37 38 39 40 41 42 43 44 45 46 47 48 49 50
000
ASUS43 KBIS 280202
RWRND

NORTH DAKOTA REGIONAL WEATHER ROUNDUP
NATIONAL WEATHER SERVICE BISMARCK ND
900 PM CDT THU AUG 27 2015

NOTE: "FAIR" INDICATES FEW OR NO CLOUDS BELOW 12,000 FEET WITH NO
SIGNIFICANT WEATHER AND/OR OBSTRUCTIONS TO VISIBILITY.


NDZ001>003-009>011-017-280300-
NORTHWEST NORTH DAKOTA

CITY           SKY/WX    TMP DP  RH WIND       PRES   REMARKS
WILLISTON      MOCLDY    78  64  61 CALM      29.88R
MINOT          PTCLDY    71  64  78 CALM      29.86S
MINOT AFB      PTCLDY    71  67  89 S6        29.85S
$$

NDZ018>021-031>035-040>046-280300-
SOUTHWEST NORTH DAKOTA

CITY           SKY/WX    TMP DP  RH WIND       PRES   REMARKS
BISMARCK       CLEAR     75  62  64 S9        29.91S
DICKINSON      MOCLDY    74  59  59 SE9       29.91R
GARRISON         N/A     71  64  78 S5        29.89S
HETTINGER ARPT MOCLDY    72  57  59 SE8       29.95S
$$

NDZ004>008-012>016-024-026-027-054-280300-
NORTHEAST NORTH DAKOTA

CITY           SKY/WX    TMP DP  RH WIND       PRES   REMARKS
GRAND FORKS    PTCLDY    69  63  81 SE3       29.89S
GRND FRKS AFB  CLEAR     67  63  89 SE6       29.90R
DEVILS LAKE    PTCLDY    70  61  73 SE7       29.88F
$$

NDZ022-023-025-028>030-036>039-047>053-280300-
SOUTHEAST NORTH DAKOTA

CITY           SKY/WX    TMP DP  RH WIND       PRES   REMARKS
FARGO          PTCLDY    70  65  84 SE5       29.90S
JAMESTOWN      CLEAR     70  67  90 SE7       29.90F
$$



USA.gov is the U.S. government's official web portal to all federal, state and local government web resources and services.